KB3UQE Weather Reports


time (UTC)temp
C
wind
direction
speed
KPH
gust
KPH
rain 1hr
cm
rain 24hr
cm
rain mn
cm
humidity
%
barometer
mb
20260508060951 10 0.0 0.0 0.00 0.00 0.00 71 1009.3
20260508060844 10 0.0 0.0 0.00 0.00 0.00 71 1009.0
20260508054551 10 0.0 0.0 0.00 0.00 0.00 71 1009.0
20260508054438 10 0.0 0.0 0.00 0.00 0.00 71 1008.8
20260508052151 10 0.0 0.0 0.00 0.00 0.00 71 1008.8
20260508052037 11 0.0 0.0 0.00 0.00 0.00 70 1008.6
20260508045751 11 0.0 0.0 0.00 0.00 0.00 70 1008.6
20260508045636 11 0.0 0.0 0.00 0.00 0.00 70 1008.4
20260508043350 11 0.0 0.0 0.00 0.00 0.00 70 1008.4
20260508043236 12 0.0 0.0 0.00 0.00 0.00 71 1008.2
20260508041250 12 0.0 0.0 0.00 0.00 0.00 71 1008.2
20260508041136 13 0.0 0.0 0.00 0.00 0.00 72 1008.0
20260508034850 13 0.0 0.0 0.00 0.00 0.00 72 1008.0
20260508034736 13 0.0 0.0 0.00 0.00 0.00 72 1007.8
20260508032450 13 0.0 0.0 0.00 0.00 0.00 72 1007.8
20260508032336 13 0.0 0.0 0.00 0.00 0.00 73 1007.9
20260508030049 13 0.0 0.0 0.00 0.00 0.00 73 1007.9
20260508025935 13 0.0 0.0 0.00 0.00 0.00 72 1007.8
20260508023649 13 0.0 0.0 0.00 0.00 0.00 72 1007.8
20260508023535 13 0.0 0.0 0.00 0.00 0.00 73 1007.9
20260508021249 13 0.0 0.0 0.00 0.00 0.00 73 1007.9
20260508021134 13 0.0 0.0 0.00 0.00 0.00 72 1007.9
20260508014849 13 0.0 0.0 0.00 0.00 0.00 72 1007.9
20260508014734 12 0.0 0.0 0.00 0.00 0.00 71 1007.7
20260508012448 12 0.0 0.0 0.00 0.00 0.00 71 1007.7
20260508012334 13 0.0 0.0 0.00 0.00 0.00 70 1007.2
20260508010047 13 0.0 0.0 0.00 0.00 0.00 70 1007.2
20260508005935 13 0.0 0.0 0.00 0.00 0.00 70 1006.8
20260508003647 13 0.0 0.0 0.00 0.00 0.00 70 1006.8
20260508003534 15 0.0 0.0 0.00 0.00 0.00 69 1006.6
20260508001247 15 0.0 0.0 0.00 0.00 0.00 69 1006.6
20260508001134 16 0.0 0.0 0.00 0.00 0.00 69 1006.2
20260507234847 16 0.0 0.0 0.00 0.00 0.00 69 1006.2
20260507234733 17 0.0 0.0 0.00 0.00 0.00 69 1005.9
20260507232447 17 0.0 0.0 0.00 0.00 0.00 69 1005.9
20260507232333 18 0.0 0.0 0.00 0.00 0.00 69 1005.7
20260507230046 18 0.0 0.0 0.00 0.00 0.00 69 1005.7
20260507225933 20 0.0 0.0 0.00 0.00 0.00 68 1005.4
20260507223646 20 0.0 0.0 0.00 0.00 0.00 68 1005.4
20260507223532 21 0.0 0.0 0.00 0.00 0.00 68 1005.4
20260507221246 21 0.0 0.0 0.00 0.00 0.00 68 1005.4
20260507221132 21 0.0 0.0 0.00 0.00 0.00 67 1005.4
20260507214846 21 0.0 0.0 0.00 0.00 0.00 67 1005.4
20260507214732 22 0.0 0.0 0.00 0.00 0.00 67 1005.5
20260507212445 22 0.0 0.0 0.00 0.00 0.00 67 1005.5
20260507212332 22 0.0 0.0 0.00 0.00 0.00 67 1005.5
20260507210048 22 0.0 0.0 0.00 0.00 0.00 67 1005.5
20260507205932 23 0.0 0.0 0.00 0.00 0.00 67 1005.4
20260507203859 23 0.0 0.0 0.00 0.00 0.00 67 1005.4
20260507203532 23 0.0 0.0 0.00 0.00 0.00 67 1005.7
20260507201459 23 0.0 0.0 0.00 0.00 0.00 67 1005.7
20260507201431 25 0.0 0.0 0.00 0.00 0.00 63 1005.9
20260507195058 25 0.0 0.0 0.00 0.00 0.00 63 1005.9
20260507195031 25 0.0 0.0 0.00 0.00 0.00 62 1006.3
20260507192657 25 0.0 0.0 0.00 0.00 0.00 62 1006.3
20260507192632 27 0.0 0.0 0.00 0.00 0.00 61 1006.2
20260507190257 27 0.0 0.0 0.00 0.00 0.00 61 1006.2
20260507190232 28 0.0 0.0 0.00 0.00 0.00 63 1006.6
20260507183857 28 0.0 0.0 0.00 0.00 0.00 63 1006.6
20260507183830 31 0.0 0.0 0.00 0.00 0.00 62 1006.8
20260507181456 31 0.0 0.0 0.00 0.00 0.00 62 1006.8
20260507181430 31 0.0 0.0 0.00 0.00 0.00 62 1007.2
20260507175056 31 0.0 0.0 0.00 0.00 0.00 62 1007.2
20260507175030 31 0.0 0.0 0.00 0.00 0.00 60 1007.0
20260507172656 31 0.0 0.0 0.00 0.00 0.00 60 1007.0
20260507172630 32 0.0 0.0 0.00 0.00 0.00 57 1007.7
20260507170256 32 0.0 0.0 0.00 0.00 0.00 57 1007.7
20260507170229 32 0.0 0.0 0.00 0.00 0.00 55 1007.7
20260507164156 32 0.0 0.0 0.00 0.00 0.00 55 1007.7
20260507164129 32 0.0 0.0 0.00 0.00 0.00 55 1008.4
20260507162055 32 0.0 0.0 0.00 0.00 0.00 55 1008.4
20260507162029 27 0.0 0.0 0.00 0.00 0.00 54 1009.1
20260507155955 27 0.0 0.0 0.00 0.00 0.00 54 1009.1
20260507155928 23 0.0 0.0 0.00 0.00 0.00 57 1008.8
20260507153855 23 0.0 0.0 0.00 0.00 0.00 57 1008.8
20260507153829 20 0.0 0.0 0.00 0.00 0.00 63 1009.2
20260507151755 20 0.0 0.0 0.00 0.00 0.00 63 1009.2
20260507151728 19 0.0 0.0 0.00 0.00 0.00 65 1009.6
20260507145654 19 0.0 0.0 0.00 0.00 0.00 65 1009.6
20260507145628 20 0.0 0.0 0.00 0.00 0.00 62 1009.6
20260507143254 20 0.0 0.0 0.00 0.00 0.00 62 1009.6
20260507143228 19 0.0 0.0 0.00 0.00 0.00 64 1010.0
20260507140854 19 0.0 0.0 0.00 0.00 0.00 64 1010.0
20260507140828 18 0.0 0.0 0.00 0.00 0.00 64 1010.3
20260507134453 18 0.0 0.0 0.00 0.00 0.00 64 1010.3
20260507134427 17 0.0 0.0 0.00 0.00 0.00 65 1010.5
20260507132053 17 0.0 0.0 0.00 0.00 0.00 65 1010.5
20260507132027 16 0.0 0.0 0.00 0.00 0.00 65 1011.4
20260507125653 16 0.0 0.0 0.00 0.00 0.00 65 1011.4
20260507125627 20 0.0 0.0 0.00 0.00 0.00 57 1010.4
20260507123252 20 0.0 0.0 0.00 0.00 0.00 57 1010.4
20260507123226 20 0.0 0.0 0.00 0.00 0.00 56 1011.0
20260507120852 20 0.0 0.0 0.00 0.00 0.00 56 1011.0
20260507120827 18 0.0 0.0 0.00 0.00 0.00 59 1007.4
20260507114452 18 0.0 0.0 0.00 0.00 0.00 59 1007.4
20260507114427 16 0.0 0.0 0.00 0.00 0.00 63 1007.0
20260507112052 16 0.0 0.0 0.00 0.00 0.00 63 1007.0
20260507112026 18 0.0 0.0 0.00 0.00 0.00 59 1007.7
20260507105652 18 0.0 0.0 0.00 0.00 0.00 59 1007.7
20260507105625 16 0.0 0.0 0.00 0.00 0.00 65 1009.2
20260507103251 16 0.0 0.0 0.00 0.00 0.00 65 1009.2
20260507103225 16 0.0 0.0 0.00 0.00 0.00 67 1008.6
20260507100854 16 0.0 0.0 0.00 0.00 0.00 67 1008.6
20260507100825 15 0.0 0.0 0.00 0.00 0.00 67 1008.1
20260507094451 15 0.0 0.0 0.00 0.00 0.00 67 1008.1
20260507094425 15 0.0 0.0 0.00 0.00 0.00 67 1007.9
20260507092050 15 0.0 0.0 0.00 0.00 0.00 67 1007.9
20260507092027 15 0.0 0.0 0.00 0.00 0.00 68 1006.3
20260507085650 15 0.0 0.0 0.00 0.00 0.00 68 1006.3
20260507085626 14 0.0 0.0 0.00 0.00 0.00 70 1005.5
20260507083250 14 0.0 0.0 0.00 0.00 0.00 70 1005.5
20260507083225 13 0.0 0.0 0.00 0.00 0.00 70 1005.4
20260507081150 13 0.0 0.0 0.00 0.00 0.00 70 1005.4
20260507081124 14 0.0 0.0 0.00 0.00 0.00 71 1007.1
20260507075050 14 0.0 0.0 0.00 0.00 0.00 71 1007.1
20260507075024 14 0.0 0.0 0.00 0.00 0.00 70 1007.9
20260507073223 14 0.0 0.0 0.00 0.00 0.00 70 1007.9
20260507072912 14 0.0 0.0 0.00 0.00 0.00 70 1007.9
20260507072753 14 0.0 0.0 0.00 0.00 0.00 70 1007.9
20260507064213 14 0.0 0.0 0.00 0.00 0.00 70 1007.9
20260507061424 14 0.0 0.0 0.00 0.00 0.00 70 1007.9